[[{"header":{"parameterUnit":"m.s-1","parameterCategory":1,"la1":30.2991,"la2":30.254,"lo1":-89.0895,"lo2":-89.0444,"dy":0.0017,"dx":0.0017,"nx":28,"ny":28,"refTime":"2025-07-26T03:00:00:Z","depth":0,"parameterNumber":2,"parameterNumberName":"U-component_of_WINDS"},"data":[0,0,0,0,0,0,0,0,0,0,0,0,0,0,0,0,0,0,0,0,0,0,0,0,0,0,0,0,0,0,0,0,0,0,0,0,0,0,0,0,0,0,0,0,0,0,0,0,0,0,0,0,0,0,0,0,0,0,-0.5882,-0.5881,0,-0.5798,-0.5797,-0.5796,-0.5744,-0.5744,-0.5743,-0.5743,-0.5656,-0.5654,-0.5652,0,0,0,0,0,0,0,0,0,0,0,0,0,-0.5999,-0.5997,-0.5882,-0.5881,-0.588,-0.5798,-0.5797,-0.5796,-0.5744,-0.5744,-0.5743,-0.5743,-0.5657,-0.5655,-0.5652,0,0,0,0,0,0,0,0,0,0,0,0,0,-0.5935,-0.5997,-0.5882,-0.5844,-0.584,-0.5798,-0.5797,-0.5796,-0.5744,-0.5744,-0.5743,-0.5743,-0.5658,-0.5655,-0.5652,-0.5641,0,0,-0.5643,-0.5641,0,0,0,0,0,0,0,0,-0.5939,-0.5931,-0.5851,-0.5847,-0.5842,-0.5781,-0.5806,-0.5744,-0.5744,-0.578,-0.5743,-0.5742,-0.5698,-0.5692,-0.5677,-0.5637,-0.5634,-0.5642,-0.564,-0.5639,-0.5638,0,0,0,0,0,0,0,-0.5943,-0.5934,-0.5849,-0.585,-0.5844,-0.5832,-0.5822,-0.5794,-0.5743,-0.5777,-0.5773,-0.5764,-0.5696,-0.568,-0.5675,-0.5632,-0.5642,-0.564,-0.5638,-0.5637,-0.5582,-0.5582,0,0,0,0,0,0,-0.5954,-0.5938,-0.5852,-0.5846,-0.589,-0.583,-0.5819,-0.5801,-0.5743,-0.5734,-0.5764,-0.5762,-0.5685,-0.5678,-0.5671,-0.5656,-0.5639,-0.5636,-0.5635,-0.5581,-0.5582,-0.5582,0,0,0,0,0,0,-0.5956,-0.5946,-0.5855,-0.5891,-0.5879,-0.5828,-0.5808,-0.58,-0.5784,-0.5733,-0.5724,-0.5758,-0.5685,-0.5676,-0.565,-0.5652,-0.5635,-0.5632,-0.5581,-0.5581,-0.5582,-0.5625,0,0,0,0,0,0,-0.596,-0.5948,-0.5943,-0.5891,-0.5877,-0.5835,-0.5808,-0.5798,-0.5779,-0.5775,-0.5725,-0.5716,-0.5684,-0.5655,-0.5647,-0.5647,-0.563,-0.558,-0.5581,-0.5582,-0.5623,-0.5627,-0.563,0,0,0,0,0,-0.5964,-0.5958,-0.5943,-0.5933,-0.587,-0.5835,-0.5826,-0.579,-0.5779,-0.5774,-0.5742,-0.5717,-0.5653,-0.5652,-0.5643,-0.5643,-0.558,-0.5581,-0.5582,-0.5621,-0.5626,-0.563,0,0,0,0,0,0,-0.601,-0.595,-0.5933,-0.591,-0.5878,-0.5826,-0.5818,-0.5796,-0.5766,-0.5763,-0.5719,-0.5708,-0.5687,-0.5662,-0.5662,-0.5631,-0.5614,-0.5613,-0.5647,-0.5651,-0.5655,-0.5661,-0.5627,0,0,0,0,0,-0.6018,-0.5994,-0.5943,-0.5928,-0.5913,-0.5869,-0.5852,-0.5827,-0.5792,-0.5778,-0.5744,-0.5711,-0.5683,-0.5666,-0.5638,-0.5619,-0.5608,-0.5615,-0.5619,-0.5622,-0.5621,-0.5611,-0.5613,-0.5585,-0.5585,-0.5585,0,0,-0.6033,-0.5997,-0.5985,-0.5936,-0.5908,-0.5885,-0.5857,-0.5834,-0.5816,-0.5774,-0.5748,-0.5722,-0.5682,-0.566,-0.5649,-0.5639,-0.5627,-0.5623,-0.5626,-0.5623,-0.5612,-0.5615,-0.5617,-0.5586,-0.5585,-0.5585,0,0,-0.6048,-0.6019,-0.6003,-0.5976,-0.5935,-0.5906,-0.5903,-0.5854,-0.5836,-0.5809,-0.5777,-0.5756,-0.5709,-0.5683,-0.5663,-0.5671,-0.5648,-0.5663,-0.5682,-0.5672,-0.5674,-0.5676,-0.5679,-0.5681,-0.5663,-0.5663,-0.5663,0,-0.6072,-0.6036,-0.5998,-0.5976,-0.5956,-0.5918,-0.5902,-0.5878,-0.583,-0.5817,-0.5807,-0.5749,-0.5719,-0.5691,-0.5693,-0.5679,-0.5674,-0.5668,-0.5677,-0.5678,-0.5679,-0.5682,-0.5683,-0.5665,-0.5665,-0.5665,-0.5665,0,-0.6067,-0.6043,-0.6035,-0.599,-0.5969,-0.5951,-0.5911,-0.5894,-0.5872,-0.5844,-0.5818,-0.5782,-0.5746,-0.5738,-0.5715,-0.5707,-0.5702,-0.5685,-0.5667,-0.5685,-0.5687,-0.5687,-0.5669,-0.5668,-0.5667,-0.5667,0,0,-0.6107,-0.6043,-0.6041,-0.6021,-0.5973,-0.5954,-0.5934,-0.59,-0.5887,-0.5856,-0.5839,-0.5801,-0.5786,-0.5764,-0.5738,-0.5729,-0.5739,-0.5714,-0.5712,-0.572,-0.5729,-0.5741,-0.5743,-0.5724,-0.5724,-0.5724,-0.5732,0,-0.6116,-0.6079,-0.6045,-0.602,-0.5998,-0.5962,-0.5945,-0.5915,-0.5889,-0.5867,-0.5838,-0.5812,-0.5794,-0.578,-0.5771,-0.574,-0.574,-0.5739,-0.5707,-0.5707,-0.5718,-0.5744,-0.5757,-0.5766,-0.5732,-0.5732,-0.5732,0,-0.612,-0.6091,-0.6064,-0.6021,-0.601,-0.5995,-0.5962,-0.5941,-0.5906,-0.5888,-0.5865,-0.5838,-0.5816,-0.5802,-0.5772,-0.5772,-0.5758,-0.5741,-0.5741,-0.5736,-0.572,-0.574,-0.5768,-0.577,-0.5733,-0.5733,-0.5733,0,-0.6153,-0.6107,-0.6085,-0.6069,-0.6017,-0.6008,-0.5986,-0.5951,-0.5933,-0.5904,-0.5892,-0.5861,-0.5844,-0.5821,-0.5787,-0.5779,-0.5761,-0.5743,-0.5746,-0.5747,-0.5742,-0.5743,-0.5769,-0.5734,-0.5734,-0.5734,-0.5734,0,-0.6165,-0.615,-0.6099,-0.6086,-0.6068,-0.603,-0.6014,-0.5989,-0.5959,-0.594,-0.5908,-0.5891,-0.5848,-0.5826,-0.58,-0.5779,-0.5772,-0.5757,-0.575,-0.576,-0.5762,-0.5749,-0.5747,-0.5734,-0.5734,-0.5734,-0.5734,0,-0.6198,-0.6163,-0.6137,-0.6091,-0.6079,-0.6069,-0.6029,-0.6015,-0.5988,-0.5966,-0.5958,-0.5916,-0.5889,-0.5854,-0.5815,-0.5797,-0.5781,-0.577,-0.5793,-0.5788,-0.5793,-0.5793,-0.5811,-0.5812,-0.5777,-0.5777,-0.5777,0,-0.6208,-0.6196,-0.6149,-0.6135,-0.6114,-0.6091,-0.6073,-0.6035,-0.6018,-0.5979,-0.597,-0.5941,-0.5915,-0.5874,-0.584,-0.5811,-0.58,-0.5808,-0.5795,-0.5805,-0.58,-0.5801,-0.58,-0.5811,-0.5812,-0.5812,-0.5812,0,-0.623,-0.6214,-0.6189,-0.6159,-0.6138,-0.6112,-0.6085,-0.6075,-0.6032,-0.6014,-0.5987,-0.5967,-0.5929,-0.5901,-0.5868,-0.5845,-0.5822,-0.5817,-0.5816,-0.5826,-0.5839,-0.5832,-0.5801,-0.5817,-0.5816,-0.5816,-0.5816,-0.5816,-0.6252,-0.624,-0.6206,-0.6179,-0.6155,-0.6131,-0.6116,-0.6088,-0.6064,-0.603,-0.601,-0.5983,-0.595,-0.5904,-0.5883,-0.5862,-0.5853,-0.5851,-0.5851,-0.5851,-0.5854,-0.5843,-0.5856,-0.5856,-0.5855,-0.5855,-0.5855,0,-0.6273,-0.6249,-0.6225,-0.6189,-0.6168,-0.6149,-0.6118,-0.6102,-0.608,-0.6051,-0.6027,-0.5996,-0.5969,-0.5934,-0.5905,-0.5895,-0.5883,-0.5888,-0.5888,-0.5884,-0.5864,-0.5868,-0.5898,-0.5898,-0.5898,-0.5898,-0.5898,-0.5898,-0.6281,-0.626,-0.624,-0.6207,-0.6184,-0.6158,-0.6142,-0.612,-0.6097,-0.6064,-0.6041,-0.6019,-0.5988,-0.5956,-0.5931,-0.5921,-0.5912,-0.592,-0.5907,-0.5889,-0.5885,-0.5881,-0.5885,-0.5918,-0.5918,-0.5929,-0.5929,-0.5929]},{"header":{"parameterUnit":"m.s-1","parameterCategory":1,"la1":30.2991,"la2":30.254,"lo1":-89.0895,"lo2":-89.0444,"dy":0.0017,"dx":0.0017,"nx":28,"ny":28,"refTime":"2025-07-26T03:00:00:Z","depth":0,"parameterNumber":3,"parameterNumberName":"V-component_of_WINDS"},"data":[0,0,0,0,0,0,0,0,0,0,0,0,0,0,0,0,0,0,0,0,0,0,0,0,0,0,0,0,0,0,0,0,0,0,0,0,0,0,0,0,0,0,0,0,0,0,0,0,0,0,0,0,0,0,0,0,0,0,4.6007,4.6007,0,4.5979,4.5979,4.5979,4.5986,4.5986,4.5987,4.5987,4.5954,4.5953,4.5952,0,0,0,0,0,0,0,0,0,0,0,0,0,4.6062,4.6061,4.6007,4.6007,4.6006,4.5979,4.5979,4.5979,4.5986,4.5986,4.5987,4.5987,4.5955,4.5953,4.5952,0,0,0,0,0,0,0,0,0,0,0,0,0,4.6037,4.6061,4.6007,4.6007,4.6006,4.5979,4.5979,4.5978,4.5985,4.5986,4.5987,4.5988,4.5955,4.5953,4.5951,4.5922,0,0,4.5945,4.5944,0,0,0,0,0,0,0,0,4.6038,4.6035,4.6007,4.6007,4.6006,4.5987,4.5986,4.5959,4.5985,4.5993,4.5987,4.5988,4.5964,4.5961,4.5954,4.592,4.5919,4.5945,4.5944,4.5943,4.5942,0,0,0,0,0,0,0,4.604,4.6036,4.5996,4.6007,4.6006,4.6007,4.6004,4.5981,4.5974,4.5993,4.5993,4.599,4.5964,4.5956,4.5954,4.5918,4.5945,4.5943,4.5942,4.5941,4.5859,4.5858,0,0,0,0,0,0,4.6043,4.6037,4.5997,4.5995,4.6025,4.6005,4.6002,4.5992,4.5975,4.5973,4.5989,4.599,4.5959,4.5956,4.5952,4.5917,4.5943,4.5941,4.5939,4.586,4.5859,4.5858,0,0,0,0,0,0,4.6044,4.6039,4.5998,4.6016,4.6011,4.6003,4.5992,4.5991,4.5983,4.5972,4.597,4.5983,4.596,4.5955,4.593,4.5916,4.594,4.5938,4.5861,4.586,4.5859,4.5846,0,0,0,0,0,0,4.6045,4.6039,4.6029,4.6016,4.601,4.5977,4.5991,4.599,4.598,4.5981,4.5966,4.5964,4.596,4.5933,4.5928,4.5914,4.5936,4.5862,4.5861,4.5859,4.5847,4.5844,4.5842,0,0,0,0,0,4.6047,4.6025,4.6028,4.6023,4.5997,4.5976,4.5972,4.597,4.5979,4.5968,4.5961,4.5964,4.5919,4.593,4.5924,4.5909,4.5863,4.5861,4.5859,4.5849,4.5845,4.5842,0,0,0,0,0,0,4.6034,4.6023,4.6027,4.6,4.5989,4.5977,4.5963,4.5966,4.5951,4.5953,4.5949,4.5946,4.592,4.5912,4.5925,4.588,4.5892,4.5889,4.5886,4.5882,4.5879,4.5881,4.5934,0,0,0,0,0,4.6029,4.6014,4.6004,4.5982,4.5976,4.5971,4.5961,4.5961,4.5949,4.5944,4.5935,4.5922,4.5904,4.5893,4.5876,4.5847,4.5843,4.5834,4.5831,4.5828,4.5825,4.5809,4.5805,4.5851,4.5851,4.5851,0,0,4.6016,4.6008,4.5999,4.5979,4.597,4.5954,4.5966,4.5948,4.5936,4.594,4.5916,4.5909,4.5894,4.5867,4.5854,4.586,4.5812,4.5826,4.5824,4.5822,4.5807,4.5802,4.5798,4.585,4.585,4.585,0,0,4.5985,4.5978,4.5959,4.595,4.5938,4.5935,4.593,4.5918,4.5914,4.589,4.5894,4.5878,4.5848,4.5838,4.5829,4.5796,4.5798,4.579,4.5774,4.5759,4.5755,4.5752,4.574,4.5736,4.5787,4.5787,4.5787,0,4.5971,4.5947,4.5948,4.593,4.5921,4.5926,4.5906,4.5898,4.588,4.5873,4.588,4.5844,4.5834,4.5805,4.5797,4.5789,4.5783,4.5792,4.5756,4.5753,4.575,4.5738,4.5734,4.5786,4.5787,4.5787,4.5787,0,4.593,4.5914,4.59,4.5885,4.5874,4.5855,4.5852,4.5841,4.5842,4.5837,4.5813,4.5802,4.5784,4.5777,4.5777,4.5747,4.5751,4.5757,4.5769,4.5744,4.5734,4.5729,4.5785,4.5786,4.5786,4.5786,0,0,4.5889,4.5876,4.587,4.5864,4.5851,4.5838,4.582,4.5804,4.5794,4.5782,4.5766,4.5742,4.5747,4.5737,4.5736,4.5722,4.5697,4.573,4.5729,4.5724,4.5664,4.566,4.5655,4.5699,4.5698,4.5697,4.5665,0,4.5857,4.5826,4.5826,4.5796,4.5781,4.5787,4.5771,4.5761,4.5756,4.5742,4.5737,4.572,4.5729,4.5723,4.571,4.5703,4.5685,4.5705,4.5683,4.5682,4.5686,4.5649,4.5644,4.5614,4.5661,4.566,4.566,0,4.5815,4.5803,4.5773,4.5764,4.5757,4.5743,4.5729,4.5715,4.5704,4.5702,4.5691,4.5693,4.5673,4.5686,4.5658,4.5672,4.5663,4.5658,4.5657,4.5655,4.5669,4.5645,4.5605,4.56,4.5653,4.5654,4.5654,0,4.5788,4.5765,4.5744,4.5738,4.5727,4.5716,4.5711,4.5701,4.5691,4.5678,4.5672,4.5657,4.5648,4.5636,4.5632,4.5642,4.5605,4.5617,4.5602,4.5602,4.5593,4.5593,4.555,4.5588,4.5588,4.5588,4.5588,0,4.5752,4.5733,4.5732,4.5719,4.5698,4.5698,4.5677,4.5672,4.5663,4.5649,4.5652,4.5638,4.5635,4.562,4.5617,4.5595,4.5591,4.5588,4.5588,4.5588,4.5588,4.5581,4.5583,4.5587,4.5587,4.5587,4.5587,0,4.5717,4.5716,4.5694,4.5686,4.5683,4.5668,4.566,4.5648,4.5644,4.5626,4.5622,4.5616,4.5599,4.5595,4.5574,4.5572,4.5546,4.5547,4.555,4.555,4.5535,4.5536,4.5485,4.5479,4.5521,4.552,4.552,0,4.5694,4.568,4.5671,4.5663,4.5657,4.5643,4.5634,4.5634,4.5624,4.5612,4.56,4.5584,4.5571,4.5544,4.5537,4.5521,4.5522,4.5505,4.5519,4.552,4.5522,4.5523,4.5521,4.5502,4.5502,4.5501,4.5501,0,4.5653,4.5654,4.5641,4.5629,4.5619,4.5609,4.5599,4.5592,4.559,4.5579,4.5563,4.5553,4.5533,4.5517,4.5501,4.5495,4.5497,4.5497,4.5493,4.5492,4.5495,4.5493,4.5543,4.5498,4.5498,4.5498,4.5499,4.5499,4.5623,4.5612,4.5604,4.559,4.5584,4.5575,4.5563,4.5559,4.5546,4.5531,4.5532,4.5514,4.5503,4.5483,4.5476,4.5461,4.5466,4.546,4.5458,4.5456,4.5455,4.5498,4.5458,4.5458,4.5458,4.5458,4.5459,0,4.5583,4.5579,4.5566,4.5554,4.5543,4.5549,4.5539,4.5529,4.5514,4.5505,4.5493,4.5474,4.5459,4.5452,4.5437,4.5426,4.5427,4.5422,4.5423,4.5421,4.5451,4.5457,4.5422,4.5422,4.5422,4.5422,4.5422,4.5422,4.556,4.5541,4.554,4.5517,4.5513,4.5497,4.5491,4.5483,4.5476,4.5455,4.5443,4.544,4.5431,4.5416,4.5402,4.54,4.5394,4.5388,4.5387,4.5415,4.5419,4.5422,4.5428,4.5387,4.5387,4.5358,4.5358,4.5358]}]]